Sigfox identifier Datetime Temperature Humidity SNR
003B5940 2019-02-20 14:11:35 20.8 23 24.8
003B5940 2019-02-20 13:39:02 20.9 24 24.8
003B5940 2019-02-20 13:06:29 20.9 25 24.8
003B5940 2019-02-20 12:34:00 20.8 25 24.2
003B5940 2019-02-20 12:01:27 20.8 26 23.5
003B5940 2019-02-20 11:28:49 20.8 26 22.7
003B5940 2019-02-20 10:56:15 20.8 26 21.6
003B5940 2019-02-20 10:23:44 20.7 26 21.6
003B5940 2019-02-20 09:51:07 20.7 26 21.6
003B5940 2019-02-20 09:18:35 20.7 27 20.2
003B5940 2019-02-20 08:46:01 20.7 27 18.2
003B5940 2019-02-20 08:13:32 20.7 27 18.2
003B5940 2019-02-20 07:40:58 20.7 27 18.2
003B5940 2019-02-20 07:08:22 20.7 27 18.2
003B5940 2019-02-20 06:35:51 20.7 27 18.1
003B5940 2019-02-20 06:03:15 20.7 27 18
003B5940 2019-02-20 05:30:42 20.7 27 18.1
003B5940 2019-02-20 04:58:08 20.7 27 18.2
003B5940 2019-02-20 04:25:34 20.8 27 18.1
003B5940 2019-02-20 03:53:02 20.8 27 18.2
003B5940 2019-02-20 03:20:27 20.8 27 18.4
003B5940 2019-02-20 02:47:53 20.8 27 18.3
003B5940 2019-02-20 02:15:20 20.8 27 18.3
003B5940 2019-02-20 01:42:47 20.8 27 18.4
003B5940 2019-02-20 01:10:16 20.8 27 14.8
003B5940 2019-02-20 00:37:42 20.8 27 15.1
003B5940 2019-02-20 00:05:07 20.8 27 15
003B5940 2019-02-19 23:32:34 20.8 26 14.6
003B5940 2019-02-19 23:00:00 20.8 26 18.4
003B5940 2019-02-19 22:27:26 20.9 26 18.6
003B5940 2019-02-19 21:54:53 20.9 26 18.5
003B5940 2019-02-19 21:22:19 20.9 26 18.6
003B5940 2019-02-19 20:49:48 20.9 26 18.6
003B5940 2019-02-19 20:17:14 20.9 26 18.7
003B5940 2019-02-19 19:44:37 20.9 26 18.8
003B5940 2019-02-19 19:12:02 20.9 26 18.9
003B5940 2019-02-19 18:39:29 21 26 19
003B5940 2019-02-19 18:06:55 21 26 19
003B5940 2019-02-19 17:34:21 21 26 19.1
003B5940 2019-02-19 17:01:47 21.1 26 19.1
003B5940 2019-02-19 16:29:14 21.1 26 19.1
003B5940 2019-02-19 15:56:45 21.1 26 19.1
003B5940 2019-02-19 15:24:09 21 26 19.1
003B5940 2019-02-19 14:51:33 21 26 19.2
003B5940 2019-02-19 14:18:16 21.1 26 19.3
003B5940 2019-02-19 13:45:41 21 26 19.1
003B5940 2019-02-19 13:13:07 21 26 19.3
003B5940 2019-02-19 12:40:34 21 26 19.3
003B5940 2019-02-19 12:07:58 21 26 19.4
003B5940 2019-02-19 11:35:24 21 26 19.3
003B5940 2019-02-19 11:02:50 21 26 19.3
003B5940 2019-02-19 10:30:15 20.9 25 19.3
003B5940 2019-02-19 09:57:41 20.8 25 19.4
003B5940 2019-02-19 09:25:07 20.8 25 17
003B5940 2019-02-19 08:52:33 20.8 25 16.8
003B5940 2019-02-19 08:20:02 20.7 25 17
003B5940 2019-02-19 07:47:26 20.7 24 17.1
003B5940 2019-02-19 07:14:51 20.8 24 17.2
003B5940 2019-02-19 06:42:17 20.7 24 17.1
003B5940 2019-02-19 06:09:41 20.7 24 17
003B5940 2019-02-19 05:37:05 20.7 24 17.3
003B5940 2019-02-19 05:04:30 20.8 24 19.6
003B5940 2019-02-19 04:31:55 20.8 24 21.1
003B5940 2019-02-19 03:59:19 20.8 24 21.1
003B5940 2019-02-19 03:26:46 20.8 24 21.1
003B5940 2019-02-19 02:54:10 20.8 24 21.1
003B5940 2019-02-19 02:21:38 20.7 23 21.1
003B5940 2019-02-19 01:49:06 20.8 23 21.1
003B5940 2019-02-19 01:16:34 20.7 23 21.2
003B5940 2019-02-19 00:44:02 20.8 23 21.2
003B5940 2019-02-19 00:11:29 20.7 23 21.3
003B5940 2019-02-18 23:38:56 20.7 23 21.4
003B5940 2019-02-18 23:06:22 20.8 23 21.4
003B5940 2019-02-18 22:33:46 20.8 23 21.5
003B5940 2019-02-18 22:01:13 20.8 22 21.5
003B5940 2019-02-18 21:28:35 20.8 22 21.6
003B5940 2019-02-18 20:56:01 20.8 22 21.6
003B5940 2019-02-18 20:23:27 20.8 22 21.7
003B5940 2019-02-18 19:50:54 20.8 22 21.7
003B5940 2019-02-18 19:18:20 20.8 22 21.7
003B5940 2019-02-18 18:45:47 20.8 22 21.8
003B5940 2019-02-18 18:13:12 20.9 22 21.8
003B5940 2019-02-18 17:40:36 20.9 21 21.8
003B5940 2019-02-18 17:08:04 20.9 21 21.9
003B5940 2019-02-18 16:35:28 20.9 21 21.9
003B5940 2019-02-18 16:02:55 21 21 22
003B5940 2019-02-18 15:30:22 21 21 20.9
003B5940 2019-02-18 14:57:49 21 21 19.4
003B5940 2019-02-18 14:25:16 21.2 20 21
003B5940 2019-02-18 13:52:43 21.2 20 21.1
003B5940 2019-02-18 13:20:11 21.3 20 21.2
003B5940 2019-02-18 12:47:39 21.4 19 21.3
003B5940 2019-02-18 12:15:05 21.7 19 21.5
003B5940 2019-02-18 11:42:33 22 18 21.5
003B5940 2019-02-18 11:09:21 21.3 19 21.5
003B5940 2019-02-18 10:36:48 21.3 19 21.4
003B5940 2019-02-18 10:04:14 21.2 19 21.5
003B5940 2019-02-18 09:31:41 21.2 19 21.6
003B5940 2019-02-18 08:59:08 21.1 19 21.6
003B5940 2019-02-18 08:26:35 21.1 19 21.7
003B5940 2019-02-18 07:54:01 21 18 21.6
003B5940 2019-02-18 07:21:27 21 18 21.6
003B5940 2019-02-18 06:48:53 21 18 21.7
003B5940 2019-02-18 06:16:20 21 18 21.8
003B5940 2019-02-18 05:43:46 21 19 21.9
003B5940 2019-02-18 05:11:13 21 19 22
003B5940 2019-02-18 04:38:39 21 19 22
003B5940 2019-02-18 04:06:06 21 19 22
003B5940 2019-02-18 03:33:32 21 19 22.1
003B5940 2019-02-18 03:00:59 21 19 22.1
003B5940 2019-02-18 02:28:24 21 19 22.1
003B5940 2019-02-18 01:55:51 21 19 22
003B5940 2019-02-18 01:23:18 21.1 19 22.1
003B5940 2019-02-18 00:50:43 21 19 21.1
003B5940 2019-02-18 00:18:08 21.1 19 21.1
003B5940 2019-02-17 23:45:33 21 19 21.1
003B5940 2019-02-17 23:12:58 21 19 21.3
003B5940 2019-02-17 22:40:24 21 19 21.3
003B5940 2019-02-17 22:07:49 21.1 20 21.3
003B5940 2019-02-17 21:35:16 21.1 20 21.2
003B5940 2019-02-17 21:02:42 21.1 20 21.3
003B5940 2019-02-17 20:30:08 21.1 20 21.3
003B5940 2019-02-17 19:57:33 21.1 20 21.3
003B5940 2019-02-17 19:24:59 21.1 20 21.3
003B5940 2019-02-17 18:52:26 21.1 20 21.4
003B5940 2019-02-17 18:19:54 21.1 20 21.4
003B5940 2019-02-17 17:47:21 21.1 20 21.6
003B5940 2019-02-17 17:14:47 21.2 20 21.6
003B5940 2019-02-17 16:42:15 21.2 20 21.6
003B5940 2019-02-17 16:09:43 21.2 20 21.5
003B5940 2019-02-17 15:37:09 21.2 20 22.5
003B5940 2019-02-17 15:04:35 21.2 21 22.6
003B5940 2019-02-17 14:32:01 21.2 21 22.6
003B5940 2019-02-17 13:59:27 21.2 21 22.6
003B5940 2019-02-17 13:26:53 21.2 21 22.6
003B5940 2019-02-17 12:54:19 21.2 21 22.7
003B5940 2019-02-17 12:21:45 21.1 21 22.7
003B5940 2019-02-17 11:49:11 21.1 21 23.4
003B5940 2019-02-17 11:16:38 21.1 21 23.5
003B5940 2019-02-17 10:44:04 21.1 21 23.5
003B5940 2019-02-17 10:11:30 21.1 21 23.5
003B5940 2019-02-17 09:38:57 21.1 21 23.4
003B5940 2019-02-17 09:06:23 21.1 21 23.3
003B5940 2019-02-17 08:33:49 21.1 22 23.4
003B5940 2019-02-17 08:00:34 21.1 22 23.5
003B5940 2019-02-17 07:28:00 21.1 22 23.5
003B5940 2019-02-17 06:55:26 21.1 22 23.4
003B5940 2019-02-17 06:22:53 21.1 22 23.5
003B5940 2019-02-17 05:50:20 21.1 22 23.5
003B5940 2019-02-17 05:17:46 21.1 23 23.5
003B5940 2019-02-17 04:45:14 21.1 23 23.4
003B5940 2019-02-17 04:12:41 21.1 23 23.3
003B5940 2019-02-17 03:40:08 21.1 23 23.3
003B5940 2019-02-17 03:07:35 21.1 23 23.3
003B5940 2019-02-17 02:35:02 21.1 24 23.3
003B5940 2019-02-17 02:02:27 21.1 24 22.6
003B5940 2019-02-17 01:29:54 21.2 24 22.5
003B5940 2019-02-17 00:57:21 21.2 24 22.6
003B5940 2019-02-17 00:24:46 21.2 24 22.6
003B5940 2019-02-16 23:52:13 21.2 24 22.6
003B5940 2019-02-16 23:19:39 21.2 24 22.6
003B5940 2019-02-16 22:47:05 21.2 24 22.5
003B5940 2019-02-16 22:14:32 21.2 24 21.7
003B5940 2019-02-16 21:41:58 21.2 24 21.6
003B5940 2019-02-16 21:09:25 21.3 25 21.6
003B5940 2019-02-16 20:36:53 21.3 25 21.7
003B5940 2019-02-16 20:04:21 21.3 25 21.7
003B5940 2019-02-16 19:31:48 21.3 25 21.7
003B5940 2019-02-16 18:59:16 21.3 25 21.7
003B5940 2019-02-16 18:26:43 21.3 25 21.7
003B5940 2019-02-16 17:54:10 21.3 25 21.7
003B5940 2019-02-16 17:21:37 21.4 25 21.7
003B5940 2019-02-16 16:49:04 21.4 25 21.7
003B5940 2019-02-16 16:16:29 21.4 25 21.7
003B5940 2019-02-16 15:43:56 21.5 25 21.7
003B5940 2019-02-16 15:11:22 21.5 25 21.8
003B5940 2019-02-16 14:38:49 21.4 25 21.8
003B5940 2019-02-16 14:06:16 21.4 25 21.8
003B5940 2019-02-16 13:33:43 21.4 25 21.8
003B5940 2019-02-16 13:01:09 21.3 25 21.7
003B5940 2019-02-16 12:28:36 21.3 25 21.7
003B5940 2019-02-16 11:56:02 21.3 25 21.7
003B5940 2019-02-16 11:23:29 21.3 25 21.7
003B5940 2019-02-16 10:50:55 21.3 25 21.6
003B5940 2019-02-16 10:18:20 21.2 25 21.6
003B5940 2019-02-16 09:45:46 21.2 25 21.6
003B5940 2019-02-16 09:13:13 21.2 25 21.8
003B5940 2019-02-16 08:40:37 21.2 25 21.8
003B5940 2019-02-16 08:08:03 21.2 25 21.9
003B5940 2019-02-16 07:35:29 21.3 25 22.8
003B5940 2019-02-16 07:02:55 21.3 25 22.8
003B5940 2019-02-16 06:30:22 21.4 25 22.7
003B5940 2019-02-16 05:57:46 21.5 25 22.7
003B5940 2019-02-16 05:25:13 21.9 24 22.8
003B5940 2019-02-16 04:52:00 21.3 25 22.8
003B5940 2019-02-16 04:19:26 21.3 25 22.7
003B5940 2019-02-16 03:46:51 21.3 25 22.7
003B5940 2019-02-16 03:14:16 21.3 25 22.7
003B5940 2019-02-16 02:41:42 21.3 25 22.7
003B5940 2019-02-16 02:09:08 21.3 25 22.7
003B5940 2019-02-16 01:36:36 21.3 25 22.6
003B5940 2019-02-16 01:04:00 21.3 25 22.7
003B5940 2019-02-16 00:31:27 21.4 25 22.6
003B5940 2019-02-15 23:58:53 21.4 25 22.6
003B5940 2019-02-15 23:26:19 21.4 25 22.7
003B5940 2019-02-15 22:53:46 21.4 25 22.6
003B5940 2019-02-15 22:21:12 21.5 25 22.5
003B5940 2019-02-15 21:48:37 21.5 25 22.6
003B5940 2019-02-15 21:16:02 21.5 25 22.5
003B5940 2019-02-15 20:43:27 21.5 25 22.5
003B5940 2019-02-15 20:10:54 21.6 25 22.4
003B5940 2019-02-15 19:38:20 21.6 25 22.2
003B5940 2019-02-15 19:05:46 21.7 25 22.1
003B5940 2019-02-15 18:33:14 21.7 25 22
003B5940 2019-02-15 18:00:41 21.7 24 21
003B5940 2019-02-15 17:28:06 21.7 24 20.9
003B5940 2019-02-15 16:55:33 21.8 24 21
003B5940 2019-02-15 16:22:58 21.7 24 20.9
003B5940 2019-02-15 15:50:23 21.7 24 20.9
003B5940 2019-02-15 15:17:49 21.7 24 20.9
003B5940 2019-02-15 14:45:16 21.7 24 20.9
003B5940 2019-02-15 14:12:43 21.7 24 20.8
003B5940 2019-02-15 13:40:09 21.7 24 20.8
003B5940 2019-02-15 13:07:35 21.6 24 20.7
003B5940 2019-02-15 12:35:03 21.6 24 20.6
003B5940 2019-02-15 12:02:29 21.6 24 20.7
003B5940 2019-02-15 11:29:57 21.6 24 20.7
003B5940 2019-02-15 10:57:24 21.5 24 20.7
003B5940 2019-02-15 10:24:51 21.5 25 20.6
003B5940 2019-02-15 09:52:18 21.5 25 20.6
003B5940 2019-02-15 09:19:46 21.4 25 20.7
003B5940 2019-02-15 08:47:13 21.4 25 20.7
003B5940 2019-02-15 08:14:38 21.4 25 20.7
003B5940 2019-02-15 07:42:04 21.3 25 20.8
003B5940 2019-02-15 07:09:32 21.3 25 20.8
003B5940 2019-02-15 06:36:59 21.3 25 20.7
003B5940 2019-02-15 06:04:28 21.4 25 20.8
003B5940 2019-02-15 05:31:56 21.4 25 20.9
003B5940 2019-02-15 04:59:23 21.3 25 20.8
003B5940 2019-02-15 04:26:50 21.4 25 20.6
003B5940 2019-02-15 03:54:16 21.4 25 20.7
003B5940 2019-02-15 03:21:43 21.4 25 20.5
003B5940 2019-02-15 02:49:10 21.4 25 20.4
003B5940 2019-02-15 02:16:38 21.4 25 20.1
003B5940 2019-02-15 01:43:22 21.4 25 20
003B5940 2019-02-15 01:10:49 21.4 25 20
003B5940 2019-02-15 00:38:17 21.4 25 19.8
003B5940 2019-02-15 00:05:43 21.5 25 19.7
003B5940 2019-02-14 23:33:08 21.5 25 19.6
003B5940 2019-02-14 23:00:34 21.5 25 19.5
003B5940 2019-02-14 22:27:59 21.5 25 19.4
003B5940 2019-02-14 21:55:25 21.5 24 19.5
003B5940 2019-02-14 21:22:51 21.6 24 19.5
003B5940 2019-02-14 20:50:17 21.6 24 19.5
003B5940 2019-02-14 20:17:42 21.6 24 19.5
003B5940 2019-02-14 19:45:09 21.7 24 19.6
003B5940 2019-02-14 19:12:36 21.7 24 19.6
003B5940 2019-02-14 18:40:02 21.7 24 19.3
003B5940 2019-02-14 18:07:28 21.8 24 19.3
003B5940 2019-02-14 17:34:54 21.8 24 19.3
003B5940 2019-02-14 17:02:21 21.8 24 19.5
003B5940 2019-02-14 16:29:47 21.8 24 21
003B5940 2019-02-14 15:57:12 21.7 24 20.8
003B5940 2019-02-14 15:24:38 21.7 24 20.8
003B5940 2019-02-14 14:52:04 21.6 24 21.1
003B5940 2019-02-14 14:19:30 21.6 24 21
003B5940 2019-02-14 13:46:57 21.5 23 21
003B5940 2019-02-14 13:14:22 21.5 23 21.2
003B5940 2019-02-14 12:41:48 21.4 22 21.4
003B5940 2019-02-14 12:09:14 21.3 23 21.6
003B5940 2019-02-14 11:36:40 21.2 23 22.6
003B5940 2019-02-14 11:04:07 21.1 23 22.7
003B5940 2019-02-14 10:31:34 21 24 22.7
003B5940 2019-02-14 09:59:00 21 23 22.8
003B5940 2019-02-14 09:26:27 21 23 22.8
003B5940 2019-02-14 08:53:52 20.9 23 22.8
003B5940 2019-02-14 08:21:16 20.9 23 23.5
003B5940 2019-02-14 07:48:42 20.9 24 24.1
003B5940 2019-02-14 07:16:07 20.9 25 24.1
003B5940 2019-02-14 06:43:32 20.9 25 24.1
003B5940 2019-02-14 06:10:56 20.9 25 24.1
003B5940 2019-02-14 05:38:22 20.9 25 24
003B5940 2019-02-14 05:05:47 20.9 25 24
003B5940 2019-02-14 04:33:13 20.9 25 24
003B5940 2019-02-14 04:00:38 20.9 25 24
003B5940 2019-02-14 03:28:03 21 25 24
003B5940 2019-02-14 02:55:29 20.9 25 23.3
003B5940 2019-02-14 02:22:53 21 25 23.4
003B5940 2019-02-14 01:50:18 21 25 23.5
003B5940 2019-02-14 01:17:41 21 25 23.5
003B5940 2019-02-14 00:45:05 21 25 23.4
003B5940 2019-02-14 00:12:29 21 25 23.5
003B5940 2019-02-13 23:39:54 21.1 24 23.4
003B5940 2019-02-13 23:07:18 21.1 24 23.4
003B5940 2019-02-13 22:34:00 21.2 25 23.4
003B5940 2019-02-13 22:01:23 21.2 25 22.6
003B5940 2019-02-13 21:28:47 21.3 25 22.7
003B5940 2019-02-13 20:56:10 21.3 25 22.8
003B5940 2019-02-13 20:23:35 21.4 25 22.8
003B5940 2019-02-13 19:51:00 21.4 25 22.9
003B5940 2019-02-13 19:18:24 21.5 25 22.9
003B5940 2019-02-13 18:45:49 21.5 25 22
003B5940 2019-02-13 18:13:14 21.6 26 22
003B5940 2019-02-13 17:40:39 21.5 26 22.2
003B5940 2019-02-13 17:08:05 21.4 26 22.1
003B5940 2019-02-13 16:35:31 21.3 26 22.2
003B5940 2019-02-13 16:02:57 21.3 25 22.3
003B5940 2019-02-13 15:30:25 21.2 26 22.4
003B5940 2019-02-13 14:57:51 21.1 25 22.5
003B5940 2019-02-13 14:25:17 21.1 25 22.5
003B5940 2019-02-13 13:52:42 21.2 24 22.4
003B5940 2019-02-13 13:20:09 21.2 24 22.7
003B5940 2019-02-13 12:47:34 21.2 25 22.7
003B5940 2019-02-13 12:15:00 21.2 24 22.7
003B5940 2019-02-13 11:42:26 21 25 22.8
003B5940 2019-02-13 11:09:53 21 25 22.8
003B5940 2019-02-13 10:37:20 20.9 24 22.9
003B5940 2019-02-13 10:04:45 20.9 23 23
003B5940 2019-02-13 09:32:11 20.9 23 23.1
003B5940 2019-02-13 08:59:37 20.9 22 23
003B5940 2019-02-13 08:27:03 20.9 21 23
003B5940 2019-02-13 07:54:30 20.9 20 22.9
003B5940 2019-02-13 07:21:56 20.9 19 22.9
003B5940 2019-02-13 06:49:23 20.9 19 22.9
003B5940 2019-02-13 06:16:50 20.9 19 22.7
003B5940 2019-02-13 05:44:21 20.9 19 22.7
003B5940 2019-02-13 05:11:44 20.9 19 22.6
003B5940 2019-02-13 04:39:10 20.9 19 21.6
003B5940 2019-02-13 04:06:36 20.9 19 21.6
003B5940 2019-02-13 03:34:03 21 19 21.6
003B5940 2019-02-13 03:01:28 21 18 21.5
003B5940 2019-02-13 02:28:54 21 18 21.3
003B5940 2019-02-13 01:56:19 21 18 21.2
003B5940 2019-02-13 01:23:44 21 17 21.1
003B5940 2019-02-13 00:51:08 21 17 21.1
003B5940 2019-02-13 00:18:34 21 18 21
003B5940 2019-02-12 23:46:00 21.1 19 20.7
003B5940 2019-02-12 23:13:26 21.1 19 20.6
003B5940 2019-02-12 22:40:51 21.1 18 20.5
003B5940 2019-02-12 22:08:17 21.2 18 20.3
003B5940 2019-02-12 21:35:42 21.3 19 20.1
003B5940 2019-02-12 21:03:07 21.3 21 20
003B5940 2019-02-12 20:30:33 21.3 21 19.9
003B5940 2019-02-12 19:57:58 21.3 20 19.8
003B5940 2019-02-12 19:24:39 21.3 20 19.8
003B5940 2019-02-12 18:52:03 21.3 20 20
003B5940 2019-02-12 18:19:24 21.3 18 20
003B5940 2019-02-12 17:46:47 21.3 18 19.7
003B5940 2019-02-12 17:14:11 21.4 18 19.7
003B5940 2019-02-12 16:41:34 21.5 18 19.9
003B5940 2019-02-12 16:08:57 21.5 18 19.9
003B5940 2019-02-12 15:36:22 21.5 18 20
003B5940 2019-02-12 15:03:45 21.4 18 20
003B5940 2019-02-12 14:31:10 21.3 19 19.9
003B5940 2019-02-12 13:58:33 21.3 18 19.9
003B5940 2019-02-12 13:25:55 21.3 18 19.9
003B5940 2019-02-12 12:53:18 21.4 18 20
003B5940 2019-02-12 12:20:39 21.4 19 20
003B5940 2019-02-12 11:48:01 21.4 18 20
003B5940 2019-02-12 11:15:23 21.3 19 20
003B5940 2019-02-12 10:42:44 21.2 19 20.1
003B5940 2019-02-12 10:10:07 21.1 20 20.1
003B5940 2019-02-12 09:37:29 21 21 20
003B5940 2019-02-12 09:04:52 21 23 19.9
003B5940 2019-02-12 08:32:13 20.9 23 20.1
003B5940 2019-02-12 07:59:33 20.9 22 20.2
003B5940 2019-02-12 07:26:53 20.9 24 20.1
003B5940 2019-02-12 06:54:16 20.9 26 20
003B5940 2019-02-12 06:21:37 20.9 26 19.9
003B5940 2019-02-12 05:48:58 21 26 19.9
003B5940 2019-02-12 05:16:19 21 26 19.6
003B5940 2019-02-12 04:43:40 20.9 26 19.6
003B5940 2019-02-12 04:11:02 21 26 19.6
003B5940 2019-02-12 03:38:23 21 27 19.6
003B5940 2019-02-12 03:05:44 21 27 19.4
003B5940 2019-02-12 02:33:05 21 27 19.5
003B5940 2019-02-12 02:00:26 21 27 19.4
003B5940 2019-02-12 01:27:47 21.1 27 19.4
003B5940 2019-02-12 00:55:09 21 27 19.5
003B5940 2019-02-12 00:22:31 21.1 27 19.4
003B5940 2019-02-11 23:49:55 21.1 27 19.6
003B5940 2019-02-11 23:17:18 21.2 27 19.5
003B5940 2019-02-11 22:44:40 21.2 27 19.7
003B5940 2019-02-11 22:12:03 21.3 27 19.5
003B5940 2019-02-11 21:39:25 21.4 27 19.7
003B5940 2019-02-11 21:06:47 21.5 27 19.7
003B5940 2019-02-11 20:34:09 21.6 27 19.6
003B5940 2019-02-11 20:01:32 21.7 27 19.8
003B5940 2019-02-11 19:28:56 21.8 27 19.8
003B5940 2019-02-11 18:56:21 21.9 27 18.6
003B5940 2019-02-11 18:23:44 22.1 26 18
003B5940 2019-02-11 17:51:07 22.2 27 17.9
003B5940 2019-02-11 17:18:29 22.3 27 17.5
003B5940 2019-02-11 16:45:48 22.2 31 0